Regional Weather Roundup
Issued by NWS

Home | Current Version | Previous Version | Graphics & Text | Print | Product List | Glossary On
Versions: 1 2 3 4 5 6 7 8 9 10 11 12 13 14 15 16 17 18 19 20 21 22 23 24 25 26 27 28 29 30 31 32 33 34 35 36 37 38 39 40 41 42 43 44 45 46 47 48 49 50
000
ASUS45 KSLC 230410
RWRUT

UTAH REGIONAL WEATHER ROUNDUP
NATIONAL WEATHER SERVICE SALT LAKE CITY UT
1000 PM MDT THU JUN 22 2017

UTZ001>011-023>025-230500-

NORTHERN UTAH

CITY           SKY/WX    TMP DP  RH WIND       PRES   REMARKS
BRIGHAM CITY   CLEAR     72  23  16 NW12      30.05R
HILL AFB       CLEAR     73  38  28 CALM      30.07R
LOGAN          CLEAR     61  40  45 N7        30.07R
OGDEN          CLEAR     71  35  26 N6        30.04R
SALT LAKE CITY CLEAR     78  41  26 N3        30.02R
TOOELE VALLEY  CLEAR     63  41  45 SW9       30.04R
WENDOVER         N/A     78  21  12 N10G21    30.05R
HEBER CITY     CLEAR     63  28  27 E7        30.10R
WEST JORDAN    CLEAR     72  41  32 W7        30.06R

$$

UTZ011>015-024>027-230500-

CENTRAL/NORTHEAST UTAH

CITY           SKY/WX    TMP DP  RH WIND       PRES   REMARKS
PROVO AIRPORT  CLEAR     75  38  26 NW8       30.04R
MOAB/CANYONLAN CLEAR     86  29  12 NW15      29.88R
DELTA          CLEAR     75  21  13 N10       30.04R
PRICE          CLEAR     75  28  17 N12       30.08R
RICHFIELD      CLEAR     79  28  15 N8        30.08
ROOSEVELT      CLEAR     77  23  13 W15G23    30.01R
VERNAL         CLEAR     76  31  19 NW8       30.00R

$$

UTZ013>016-019>022-027-230500-

SOUTHERN UTAH

CITY           SKY/WX    TMP DP  RH WIND       PRES   REMARKS
BRYCE CANYON   CLOUDY    67  32  27 NW8       30.23R
CEDAR CITY     CLEAR     72  36  26 N7        30.04R
MILFORD        CLEAR     80  22  11 N15       30.03R
ST GEORGE      CLEAR     99  22   6 SE3       29.76R HX  92
HANKSVILLE     CLEAR     86  32  14 NW7       29.94R
KANAB          CLEAR     84  19   9 W7        30.00
BLANDING       CLEAR     73  31  21 NW9       30.07R

$$

REGIONAL REPORTS     COLORADO/ARIZONA

CITY           SKY/WX    TMP DP  RH WIND       PRES   REMARKS
CRAIG, CO      CLOUDY    71  24  17 W8        30.07R
GRAND JUNCTION CLEAR     84  33  16 N10       29.90R
RIFLE, CO      CLEAR     72  40  31 E3        29.99R
MONTROSE, CO   CLEAR     74  39  28 E7        30.00R
CORTEZ, CO     CLEAR     72  32  23 NE8       29.99R
COLORADO CITY    N/A     77  27  15 CALM      29.99R
PAGE, AZ       MOCLDY    93  29  10 W5        29.88R HAZE
GRAND CANYON   CLEAR     65  19  17 CALM      30.16R
KINGMAN, AZ    CLEAR     91  39  16 S9        29.87R
FLAGSTAFF, AZ  CLEAR     76  24  14 W6        30.19R

$$

REGIONAL REPORTS    NEVADA/IDAHO/WYOMING

CITY           SKY/WX    TMP DP  RH WIND       PRES   REMARKS
LAS VEGAS, NV  PTCLDY   105  19   4 SW9       29.70R HX  97
ELY, NY        CLEAR     70  22  16 NW8       30.16R
ELKO, NV       CLEAR     73  23  15 VRB5      30.12R
POCATELLO, ID  CLEAR     67  29  24 SW13      30.09R
BURLEY, ID     CLEAR     66  29  24 W20G28    30.06R
FORT BRIDGER,    N/A     63  34  34 NW8       30.23R
EVANSTON, WY   CLEAR     60  35  39 W12       30.22R
ROCK SPRINGS,  CLEAR     64  22  20 NW10      30.16R
KEMMERER, WY     N/A     55  34  44 NW9       30.23R

$$



USA.gov is the U.S. government's official web portal to all federal, state and local government web resources and services.